Location: Geography Hall
(41.1195°N, 80.5706°W)
Time: 20:56:10
(UTC+00:00)

OAO 2 Rocket - Pass Details

Date: 29 October 2020
Orbit: 676 x 746 km, 35.0° (Epoch: 03 December)

Event Time Altitude Azimuth Distance (km) Brightness Sun altitude
Rises 23:37:07 0° 255° (WSW) 3,068 8.4 -14.9°
Reaches altitude 10° 23:39:38 10° 249° (WSW) 2,140 7.0 -15.3°
Maximum altitude 23:44:20 41° 179° (S) 980 4.1 -16.2°
Enters shadow 23:46:56 23° 122° (ESE) 1,440 4.5 -16.7°
